GSAT0226 (GALILEO 31)

Last updated on Tue Nov 19 2024 00:02:30 GMT+0000 (Coordinated Universal Time)

1 61183U 24167B 24321.20557931 -.00000004 00000+0 00000+0 0 9996 2 61183 55.3850 237.1721 0033834 97.1093 263.3097 1.71381460 1002
UTC large
Height (km)
Speed (km/s)
/
Latitude / Longitude
Inclination (degrees)
Orbital Period (minutes)
Azimuth
Elevation
Range (km)
Doppler Factor

Next 0 passes for location: London (51.5072 / 0.1276)

Sorry there are no passes over London.